KF5JED-13 Weather Reports


time (UTC)temp
C
wind
direction
speed
KPH
gust
KPH
rain 1hr
cm
rain 24hr
cm
rain mn
cm
humidity
%
barometer
mb
20260506212642 15 83 22.5 38.6 0.00 0.00 0.00 49 1015.0
20260506212136 15 72 20.9 38.6 0.00 0.00 0.00 49 1014.9
20260506211632 15 107 20.9 27.4 0.00 0.00 0.00 48 1014.9
20260506211129 15 91 19.3 32.2 0.00 0.00 0.00 48 1014.9
20260506210627 16 66 20.9 30.6 0.00 0.00 0.00 48 1014.9
20260506210123 15 67 30.6 37.0 0.00 0.00 0.00 48 1014.9
20260506205620 16 79 27.4 30.6 0.00 0.00 0.00 47 1015.0
20260506205114 16 74 19.3 30.6 0.00 0.00 0.00 47 1015.0
20260506204613 16 64 17.7 22.5 0.00 0.00 0.00 47 1015.0
20260506204109 16 56 22.5 29.0 0.00 0.00 0.00 47 1015.1
20260506203608 17 69 30.6 33.8 0.00 0.00 0.00 44 1015.2
20260506203104 17 100 16.1 29.0 0.00 0.00 0.00 44 1015.1
20260506202602 16 91 8.0 20.9 0.00 0.00 0.00 46 1014.8
20260506202058 15 105 11.3 19.3 0.00 0.00 0.00 48 1015.1
20260506201555 15 98 6.4 20.9 0.00 0.00 0.00 49 1015.5
20260506201052 15 109 11.3 24.1 0.00 0.00 0.00 49 1014.9
20260506200548 15 54 27.4 32.2 0.00 0.00 0.00 48 1015.0
20260506200045 16 87 32.2 33.8 0.00 0.00 0.00 46 1015.0
20260506195542 15 143 6.4 24.1 0.00 0.00 0.00 48 1015.0
20260506195038 16 96 12.9 27.4 0.00 0.00 0.00 46 1014.9
20260506194536 15 84 22.5 30.6 0.00 0.00 0.00 48 1015.1
20260506194032 16 81 9.7 14.5 0.00 0.00 0.00 46 1015.3
20260506193530 15 95 12.9 17.7 0.00 0.00 0.00 49 1015.2
20260506193027 15 131 17.7 27.4 0.00 0.00 0.00 49 1015.3
20260506192524 15 42 8.0 24.1 0.00 0.00 0.00 48 1015.3
20260506192019 15 89 12.9 24.1 0.00 0.00 0.00 50 1015.6
20260506191516 14 94 14.5 16.1 0.00 0.00 0.00 50 1015.5
20260506191012 15 82 22.5 37.0 0.00 0.00 0.00 49 1015.5
20260506190510 15 85 19.3 29.0 0.00 0.00 0.00 50 1015.7
20260506190007 15 69 22.5 29.0 0.00 0.00 0.00 49 1015.7
20260506185504 15 96 11.3 14.5 0.00 0.00 0.00 50 1015.6
20260506185000 15 82 20.9 27.4 0.00 0.00 0.00 51 1015.7
20260506184457 15 99 12.9 16.1 0.00 0.00 0.00 53 1015.5
20260506183955 13 48 11.3 20.9 0.00 0.00 0.00 52 1015.8
20260506183450 14 37 12.9 22.5 0.00 0.00 0.00 50 1015.9
20260506182947 14 73 19.3 30.6 0.00 0.00 0.00 50 1015.9
20260506182444 14 55 12.9 17.7 0.00 0.00 0.00 51 1016.0
20260506181941 14 61 14.5 22.5 0.00 0.00 0.00 50 1016.2
20260506181439 13 68 9.7 19.3 0.00 0.00 0.00 52 1016.2
20260506180936 15 51 9.7 19.3 0.00 0.00 0.00 49 1016.5
20260506180432 14 21 8.0 9.7 0.00 0.00 0.00 49 1016.1
20260506175929 15 52 9.7 17.7 0.00 0.00 0.00 49 1016.3
20260506175426 13 99 6.4 11.3 0.00 0.00 0.00 51 1016.3
20260506174923 13 104 11.3 20.9 0.00 0.00 0.00 51 1016.1
20260506174421 14 107 9.7 17.7 0.00 0.00 0.00 51 1016.3
20260506173917 14 49 9.7 12.9 0.00 0.00 0.00 50 1016.5
20260506173414 13 82 11.3 19.3 0.00 0.00 0.00 52 1016.5
20260506172911 13 117 12.9 20.9 0.00 0.00 0.00 53 1016.6
20260506172407 13 134 11.3 17.7 0.00 0.00 0.00 52 1016.6
20260506171905 14 130 4.8 8.0 0.00 0.00 0.00 50 1016.3
20260506171402 13 89 12.9 17.7 0.00 0.00 0.00 54 1016.6
20260506170854 13 88 8.0 14.5 0.00 0.00 0.00 54 1016.6
20260506170350 12 86 16.1 27.4 0.00 0.00 0.00 55 1016.7
20260506165849 12 79 14.5 14.5 0.00 0.00 0.00 56 1016.6
20260506165347 12 206 8.0 9.7 0.00 0.00 0.00 55 1016.7
20260506164843 12 150 8.0 16.1 0.00 0.00 0.00 55 1016.5
20260506164340 13 79 8.0 11.3 0.00 0.00 0.00 52 1016.5
20260506163838 13 77 4.8 9.7 0.00 0.00 0.00 53 1016.3
20260506163332 12 66 9.7 17.7 0.00 0.00 0.00 56 1016.7
20260506162827 12 123 8.0 14.5 0.00 0.00 0.00 56 1016.3
20260506162325 11 136 3.2 12.9 0.00 0.00 0.00 58 1016.5
20260506161817 12 108 6.4 16.1 0.00 0.00 0.00 57 1016.6
20260506161314 11 71 3.2 9.7 0.00 0.00 0.00 60 1016.2
20260506160812 11 78 9.7 19.3 0.00 0.00 0.00 60 1016.2
20260506160308 11 91 14.5 17.7 0.00 0.00 0.00 61 1016.2
20260506155807 10 49 8.0 19.3 0.00 0.00 0.00 63 1016.3
20260506155306 10 82 11.3 14.5 0.00 0.00 0.00 61 1016.2
20260506153416 10 81 16.1 19.3 0.00 0.00 0.00 63 1016.0
20260506152914 10 81 14.5 24.1 0.00 0.00 0.00 61 1015.9
20260506152410 11 35 9.7 17.7 0.00 0.00 0.00 60 1015.9
20260506151909 10 45 11.3 17.7 0.00 0.00 0.00 62 1016.0
20260506151405 10 87 11.3 20.9 0.00 0.00 0.00 63 1015.9
20260506150903 9 104 9.7 16.1 0.00 0.00 0.00 63 1016.0
20260506150359 9 99 9.7 17.7 0.00 0.00 0.00 65 1016.0
20260506145855 9 102 14.5 29.0 0.00 0.00 0.00 63 1016.0
20260506145351 10 119 4.8 9.7 0.00 0.00 0.00 63 1016.0
20260506144849 8 99 8.0 16.1 0.00 0.00 0.00 65 1015.9
20260506144345 9 81 6.4 16.1 0.00 0.00 0.00 63 1015.6
20260506143845 9 83 12.9 17.7 0.00 0.00 0.00 64 1015.6
20260506143341 8 118 6.4 17.7 0.00 0.00 0.00 65 1015.3
20260506142839 8 98 12.9 20.9 0.00 0.00 0.00 67 1015.2
20260506142337 8 128 14.5 27.4 0.00 0.00 0.00 67 1015.0
20260506141835 8 126 16.1 27.4 0.00 0.00 0.00 68 1015.1
20260506141333 7 107 14.5 22.5 0.00 0.00 0.00 68 1015.2
20260506140831 8 93 12.9 20.9 0.00 0.00 0.00 69 1015.3
20260506140327 7 92 11.3 22.5 0.00 0.00 0.00 69 1015.3
20260506135824 7 92 14.5 33.8 0.00 0.00 0.00 70 1015.2
20260506135321 7 131 17.7 27.4 0.00 0.00 0.00 71 1015.2
20260506134817 6 104 19.3 25.7 0.00 0.00 0.00 72 1015.3
20260506134314 6 109 16.1 27.4 0.00 0.00 0.00 72 1015.3
20260506133811 6 87 14.5 24.1 0.00 0.00 0.00 73 1015.3
20260506133308 6 122 12.9 24.1 0.00 0.00 0.00 74 1015.3
20260506132804 6 117 14.5 22.5 0.00 0.00 0.00 74 1015.5
20260506132302 6 101 9.7 20.9 0.00 0.00 0.00 74 1015.7
20260506131800 6 102 14.5 25.7 0.00 0.00 0.00 75 1015.9
20260506131255 6 91 9.7 20.9 0.00 0.00 0.00 75 1016.1
20260506130752 6 107 11.3 17.7 0.00 0.00 0.00 75 1016.0
20260506130249 6 95 12.9 17.7 0.00 0.00 0.00 75 1015.9
20260506125747 6 113 9.7 16.1 0.00 0.00 0.00 75 1016.0
20260506125245 6 95 11.3 17.7 0.00 0.00 0.00 76 1016.0
20260506124743 5 105 8.0 17.7 0.00 0.00 0.00 76 1016.0
20260506124240 5 103 9.7 20.9 0.00 0.00 0.00 76 1015.6
20260506123738 5 100 11.3 17.7 0.00 0.00 0.00 76 1015.9
20260506123237 5 91 9.7 17.7 0.00 0.00 0.00 77 1015.9
20260506122733 5 110 11.3 16.1 0.00 0.00 0.00 77 1015.7
20260506122230 5 101 11.3 16.1 0.00 0.00 0.00 77 1015.6
20260506121728 5 112 6.4 16.1 0.00 0.00 0.00 77 1015.5
20260506121225 5 74 17.7 19.3 0.00 0.00 0.00 77 1015.5
20260506120722 5 85 12.9 20.9 0.00 0.00 0.00 78 1015.3
20260506120219 5 99 11.3 19.3 0.00 0.00 0.00 78 1015.0
20260506115717 5 108 17.7 22.5 0.00 0.00 0.00 78 1015.2
20260506115215 5 103 14.5 25.7 0.00 0.00 0.00 78 1015.2
20260506114713 5 104 22.5 29.0 0.00 0.00 0.00 79 1015.0
20260506114210 5 104 17.7 20.9 0.00 0.00 0.00 81 1015.2
20260506113708 5 87 12.9 20.9 0.00 0.00 0.00 82 1015.1
20260506113205 5 107 17.7 25.7 0.00 0.00 0.00 83 1015.0
20260506112701 5 77 17.7 22.5 0.00 0.00 0.00 84 1014.7
20260506112159 5 94 9.7 25.7 0.00 0.00 0.00 85 1014.7
20260506111657 5 102 11.3 24.1 0.00 0.00 0.00 86 1014.9
20260506111154 5 82 12.9 25.7 0.00 0.00 0.00 86 1014.9
20260506110651 5 88 17.7 22.5 0.00 0.00 0.00 86 1014.8
20260506110149 5 76 20.9 25.7 0.00 0.00 0.00 86 1015.2
20260506105645 5 72 16.1 25.7 0.00 0.00 0.00 86 1014.9
20260506105142 5 86 20.9 24.1 0.00 0.00 0.00 86 1015.1
20260506104640 5 80 19.3 25.7 0.00 0.00 0.00 86 1014.9
20260506104138 5 65 14.5 17.7 0.00 0.00 0.00 86 1014.8
20260506103635 6 78 19.3 19.3 0.00 0.00 0.00 86 1014.7
20260506103132 6 60 24.1 35.4 0.00 0.00 0.00 85 1014.9
20260506102630 6 94 20.9 30.6 0.00 0.00 0.00 85 1014.7
20260506102127 6 93 14.5 24.1 0.00 0.00 0.00 85 1014.8
20260506101623 6 79 14.5 20.9 0.00 0.00 0.00 85 1014.9
20260506101120 6 74 22.5 25.7 0.00 0.00 0.00 85 1014.7
20260506100619 6 61 17.7 25.7 0.00 0.00 0.00 85 1014.3
20260506100116 6 72 20.9 29.0 0.00 0.00 0.00 84 1014.5
20260506095615 6 69 11.3 24.1 0.00 0.00 0.00 83 1014.2
20260506095111 6 81 14.5 27.4 0.00 0.00 0.00 82 1014.1
20260506094609 6 85 14.5 25.7 0.00 0.00 0.00 82 1013.9
20260506094106 6 79 24.1 27.4 0.00 0.00 0.00 82 1013.8
20260506093605 6 91 20.9 25.7 0.00 0.00 0.00 81 1013.7
20260506093102 6 78 14.5 20.9 0.00 0.00 0.00 81 1013.6
20260506092600 6 67 19.3 29.0 0.00 0.00 0.00 81 1013.9
20260506092056 6 74 14.5 24.1 0.00 0.00 0.00 81 1013.7
20260506091554 6 74 12.9 20.9 0.00 0.00 0.00 81 1013.6
20260506091052 6 79 17.7 27.4 0.00 0.00 0.00 81 1013.5
20260506090549 6 75 16.1 27.4 0.00 0.00 0.00 81 1013.5
20260506090045 6 84 12.9 27.4 0.00 0.00 0.00 81 1013.6
20260506085542 6 66 16.1 30.6 0.00 0.00 0.00 81 1013.3
20260506085038 6 71 19.3 25.7 0.00 0.00 0.00 81 1013.7
20260506084536 6 83 14.5 20.9 0.00 0.00 0.00 81 1013.5
20260506084032 6 75 16.1 27.4 0.00 0.00 0.00 81 1013.7
20260506083529 6 70 22.5 29.0 0.00 0.00 0.00 80 1013.3
20260506083026 6 74 20.9 24.1 0.00 0.00 0.00 81 1013.6
20260506082523 6 87 12.9 19.3 0.00 0.00 0.00 81 1013.7
20260506082019 6 83 11.3 20.9 0.00 0.00 0.00 81 1013.3
20260506081517 6 72 14.5 24.1 0.00 0.00 0.00 80 1013.3
20260506081015 6 88 14.5 22.5 0.00 0.00 0.00 80 1013.3
20260506080512 6 78 16.1 16.1 0.00 0.00 0.00 80 1013.2
20260506073455 6 70 14.5 27.4 0.00 0.00 0.00 81 1012.5
20260506072952 6 81 17.7 27.4 0.00 0.00 0.00 81 1012.5
20260506072449 6 74 17.7 22.5 0.00 0.00 0.00 82 1012.6
20260506071947 6 71 14.5 20.9 0.00 0.00 0.00 82 1013.0
20260506071445 6 43 9.7 17.7 0.00 0.00 0.00 82 1013.3
20260506070942 5 61 11.3 14.5 0.00 0.00 0.00 82 1013.7
20260506070439 5 4 14.5 17.7 0.00 0.00 0.00 82 1013.6
20260506062416 6 69 16.1 20.9 0.00 0.00 0.00 79 1013.2
20260506061912 6 63 17.7 24.1 0.00 0.00 0.00 78 1013.1
20260506061409 6 77 17.7 30.6 0.00 0.00 0.00 78 1012.9
20260506060907 6 66 17.7 24.1 0.00 0.00 0.00 77 1012.9
20260506060404 6 65 17.7 20.9 0.00 0.00 0.00 77 1012.8
20260506051336 7 82 12.9 25.7 0.00 0.00 0.00 73 1011.9
20260506050834 7 84 11.3 20.9 0.00 0.00 0.00 73 1011.7
20260506050331 7 84 17.7 25.7 0.00 0.00 0.00 72 1011.5
20260506044822 7 83 17.7 24.1 0.00 0.00 0.00 71 1011.8
20260506044320 8 87 20.9 27.4 0.00 0.00 0.00 70 1011.7
20260506043816 8 87 14.5 33.8 0.00 0.00 0.00 69 1011.7
20260506043314 8 78 14.5 19.3 0.00 0.00 0.00 68 1011.7
20260506042812 8 79 14.5 22.5 0.00 0.00 0.00 67 1011.8
20260506042311 8 95 12.9 20.9 0.00 0.00 0.00 66 1011.6
20260506041809 8 74 16.1 22.5 0.00 0.00 0.00 66 1011.6
20260506041305 9 87 19.3 24.1 0.00 0.00 0.00 65 1011.7
20260506040803 9 88 12.9 24.1 0.00 0.00 0.00 65 1011.6
20260506040300 9 82 14.5 24.1 0.00 0.00 0.00 64 1011.7
20260506035756 9 92 16.1 20.9 0.00 0.00 0.00 64 1011.7
20260506035253 9 95 14.5 22.5 0.00 0.00 0.00 63 1011.7
20260506034750 9 87 14.5 22.5 0.00 0.00 0.00 63 1011.6
20260506034248 10 89 22.5 25.7 0.00 0.00 0.00 62 1011.6
20260506033744 10 95 19.3 27.4 0.00 0.00 0.00 62 1011.5
20260506033242 10 92 14.5 27.4 0.00 0.00 0.00 61 1011.2
20260506032738 10 87 17.7 20.9 0.00 0.00 0.00 61 1011.3
20260506032235 10 96 19.3 22.5 0.00 0.00 0.00 61 1011.6
20260506031732 10 87 14.5 20.9 0.00 0.00 0.00 60 1011.2
20260506031229 10 86 11.3 17.7 0.00 0.00 0.00 60 1011.5
20260506030728 10 84 16.1 19.3 0.00 0.00 0.00 59 1011.3
20260506030225 10 74 14.5 24.1 0.00 0.00 0.00 59 1011.1
20260506025722 11 94 14.5 27.4 0.00 0.00 0.00 58 1011.2
20260506025218 11 85 22.5 25.7 0.00 0.00 0.00 58 1011.1
20260506024715 11 75 12.9 22.5 0.00 0.00 0.00 58 1011.1
20260506024211 11 78 16.1 25.7 0.00 0.00 0.00 57 1010.8
20260506023708 11 85 16.1 25.7 0.00 0.00 0.00 57 1010.7
20260506023205 11 100 11.3 24.1 0.00 0.00 0.00 56 1010.6
20260506022702 11 82 17.7 24.1 0.00 0.00 0.00 56 1011.2
20260506022200 11 84 16.1 22.5 0.00 0.00 0.00 55 1011.2
20260506021657 12 88 19.3 27.4 0.00 0.00 0.00 55 1011.0
20260506021154 12 67 12.9 24.1 0.00 0.00 0.00 55 1010.6
20260506020651 12 74 27.4 30.6 0.00 0.00 0.00 55 1010.2
20260506020149 12 66 19.3 29.0 0.00 0.00 0.00 55 1010.8
20260506015647 12 62 22.5 30.6 0.00 0.00 0.00 53 1010.7
20260506015144 12 57 19.3 24.1 0.00 0.00 0.00 53 1010.7
20260506014641 13 64 14.5 27.4 0.00 0.00 0.00 52 1010.6
20260506014136 13 63 27.4 27.4 0.00 0.00 0.00 51 1010.8
20260506013635 13 32 14.5 27.4 0.00 0.00 0.00 51 1010.4
20260506013132 13 41 16.1 27.4 0.00 0.00 0.00 50 1010.0
20260506012628 13 45 14.5 27.4 0.00 0.00 0.00 50 1009.8
20260506012124 13 34 12.9 27.4 0.00 0.00 0.00 50 1009.7
20260506011622 13 51 16.1 25.7 0.00 0.00 0.00 50 1009.7
20260506011118 13 53 20.9 22.5 0.00 0.00 0.00 49 1009.6
20260506010617 13 53 22.5 33.8 0.00 0.00 0.00 49 1009.3
20260506010114 14 62 19.3 27.4 0.00 0.00 0.00 48 1009.4
20260506005611 14 48 16.1 22.5 0.00 0.00 0.00 48 1009.1
20260506005107 14 57 24.1 29.0 0.00 0.00 0.00 48 1008.8
20260506004604 14 70 30.6 33.8 0.00 0.00 0.00 47 1009.0
20260506004101 15 46 20.9 29.0 0.00 0.00 0.00 47 1008.9
20260506003557 15 52 17.7 33.8 0.00 0.00 0.00 46 1008.8
20260506003053 15 64 30.6 33.8 0.00 0.00 0.00 46 1008.4
20260506002549 15 69 25.7 29.0 0.00 0.00 0.00 45 1008.6
20260506002045 15 72 24.1 35.4 0.00 0.00 0.00 45 1008.6
20260506001541 15 59 22.5 27.4 0.00 0.00 0.00 46 1008.4
20260506001039 15 69 30.6 35.4 0.00 0.00 0.00 45 1008.3
20260506000536 15 72 29.0 33.8 0.00 0.00 0.00 45 1008.7
20260506000034 16 81 20.9 33.8 0.00 0.00 0.00 45 1008.6
20260505235531 16 66 24.1 30.6 0.00 0.00 0.00 44 1008.4
20260505235028 16 78 17.7 30.6 0.00 0.00 0.00 45 1008.7
20260505234525 16 69 19.3 25.7 0.00 0.00 0.00 44 1008.3
20260505234022 16 78 11.3 27.4 0.00 0.00 0.00 44 1008.4
20260505233519 16 50 14.5 24.1 0.00 0.00 0.00 44 1008.6
20260505233017 16 95 16.1 24.1 0.00 0.00 0.00 44 1008.6
20260505232514 17 81 12.9 20.9 0.00 0.00 0.00 44 1008.7
20260505232012 16 95 16.1 33.8 0.00 0.00 0.00 44 1008.7
20260505231509 16 53 17.7 29.0 0.00 0.00 0.00 44 1008.8
20260505231008 16 72 11.3 24.1 0.00 0.00 0.00 44 1008.7
20260505230504 16 55 20.9 24.1 0.00 0.00 0.00 44 1008.8
20260505230000 16 92 19.3 27.4 0.00 0.00 0.00 44 1008.8
20260505225458 16 87 20.9 27.4 0.00 0.00 0.00 44 1009.0
20260505224954 16 86 9.7 20.9 0.00 0.00 0.00 44 1008.8
20260505224450 16 76 12.9 25.7 0.00 0.00 0.00 44 1009.0
20260505223948 16 62 17.7 29.0 0.00 0.00 0.00 44 1008.9
20260505223445 16 65 20.9 24.1 0.00 0.00 0.00 44 1008.9
20260505222941 17 48 19.3 22.5 0.00 0.00 0.00 43 1009.1
20260505222437 17 59 17.7 22.5 0.00 0.00 0.00 43 1008.9
20260505221933 17 75 22.5 24.1 0.00 0.00 0.00 42 1009.1
20260505221431 17 57 25.7 27.4 0.00 0.00 0.00 43 1008.9
20260505220928 17 49 14.5 19.3 0.00 0.00 0.00 42 1009.2
20260505220425 17 91 8.0 20.9 0.00 0.00 0.00 43 1009.3
20260505215922 17 63 14.5 17.7 0.00 0.00 0.00 43 1009.2
20260505215420 17 74 22.5 22.5 0.00 0.00 0.00 42 1009.3
20260505214918 17 66 14.5 29.0 0.00 0.00 0.00 41 1009.0
20260505214415 17 67 17.7 25.7 0.00 0.00 0.00 41 1009.4
20260505213912 18 51 12.9 17.7 0.00 0.00 0.00 41 1009.8
20260505213410 18 41 6.4 16.1 0.00 0.00 0.00 40 1009.8